Location: �perlecques
(50.8057°N, 2.1521°E)
Time: 06:48:59
(UTC+00:00)

STARS - Pass Details

Date: 05 April 2023
Orbit: 616 x 630 km, 98.1° (Epoch: 03 June)

Event Time Altitude Azimuth Distance (km) Brightness Sun altitude
Rises 00:47:59 0° 1° (N) 2,919 ? -32.1°
Reaches altitude 10° 00:50:51 10° 341° (NNW) 2,010 ? -32.0°
Enters shadow 00:52:32 15° 320° (NW) 1,685 ? -31.9°
